Year,Month,Day,Hour,Minute,Value (Times are PST for temperature in C)
2018,07,27,00,00,18.60
2018,07,27,00,01,18.50
2018,07,27,00,02,18.50
2018,07,27,00,03,18.40
2018,07,27,00,04,18.40
2018,07,27,00,05,18.40
2018,07,27,00,06,18.40
2018,07,27,00,07,18.40
2018,07,27,00,08,18.30
2018,07,27,00,09,18.30
2018,07,27,00,10,18.30
2018,07,27,00,11,18.30
2018,07,27,00,12,18.30
2018,07,27,00,13,18.20
2018,07,27,00,14,18.20
2018,07,27,00,15,18.20
2018,07,27,00,16,18.20
2018,07,27,00,17,18.20
2018,07,27,00,18,18.20
2018,07,27,00,19,18.10
2018,07,27,00,20,18.10
2018,07,27,00,21,18.10
2018,07,27,00,22,18.10
2018,07,27,00,23,18.10
2018,07,27,00,24,18.00
2018,07,27,00,25,18.00
2018,07,27,00,26,17.90
2018,07,27,00,27,17.90
2018,07,27,00,28,17.90
2018,07,27,00,29,17.90
2018,07,27,00,30,17.90
2018,07,27,00,31,17.90
2018,07,27,00,32,17.90
2018,07,27,00,33,17.80
2018,07,27,00,34,17.80
2018,07,27,00,35,17.80
2018,07,27,00,36,17.80
2018,07,27,00,37,17.80
2018,07,27,00,38,17.80
2018,07,27,00,39,17.70
2018,07,27,00,40,17.70
2018,07,27,00,41,17.70
2018,07,27,00,42,17.70
2018,07,27,00,43,17.70
2018,07,27,00,44,17.70
2018,07,27,00,45,17.70
2018,07,27,00,46,17.60
2018,07,27,00,47,17.60
2018,07,27,00,48,17.60
2018,07,27,00,49,17.60
2018,07,27,00,50,17.60
2018,07,27,00,51,17.60
2018,07,27,00,52,17.60
2018,07,27,00,53,17.60
2018,07,27,00,54,17.60
2018,07,27,00,55,17.60
2018,07,27,00,56,17.50
2018,07,27,00,57,17.50
2018,07,27,00,58,17.50
2018,07,27,00,59,17.40
2018,07,27,01,00,17.40
2018,07,27,01,01,17.40
2018,07,27,01,02,17.40
2018,07,27,01,03,17.30
2018,07,27,01,04,17.30
2018,07,27,01,05,17.30
2018,07,27,01,06,17.30
2018,07,27,01,07,17.30
2018,07,27,01,08,17.30
2018,07,27,01,09,17.20
2018,07,27,01,10,17.20
2018,07,27,01,11,17.20
2018,07,27,01,12,17.20
2018,07,27,01,13,17.20
2018,07,27,01,14,17.20
2018,07,27,01,15,17.20
2018,07,27,01,16,17.10
2018,07,27,01,17,17.10
2018,07,27,01,18,17.10
2018,07,27,01,19,17.10
2018,07,27,01,20,17.10
2018,07,27,01,21,17.10
2018,07,27,01,22,17.10
2018,07,27,01,23,17.10
2018,07,27,01,24,17.00
2018,07,27,01,25,17.00
2018,07,27,01,26,17.00
2018,07,27,01,27,17.00
2018,07,27,01,28,17.00
2018,07,27,01,29,17.00
2018,07,27,01,30,17.00
2018,07,27,01,31,16.90
2018,07,27,01,32,16.90
2018,07,27,01,33,16.90
2018,07,27,01,34,16.90
2018,07,27,01,35,16.90
2018,07,27,01,36,16.90
2018,07,27,01,37,16.90
2018,07,27,01,38,16.90
2018,07,27,01,39,16.80
2018,07,27,01,40,16.80
2018,07,27,01,41,16.80
2018,07,27,01,42,16.80
2018,07,27,01,43,16.80
2018,07,27,01,44,16.80
2018,07,27,01,45,16.80
2018,07,27,01,46,16.80
2018,07,27,01,47,16.70
2018,07,27,01,48,16.70
2018,07,27,01,49,16.70
2018,07,27,01,50,16.70
2018,07,27,01,51,16.70
2018,07,27,01,52,16.70
2018,07,27,01,53,16.70
2018,07,27,01,54,16.70
2018,07,27,01,55,16.70
2018,07,27,01,56,16.70
2018,07,27,01,57,16.70
2018,07,27,01,58,16.60
2018,07,27,01,59,16.60
2018,07,27,02,00,16.60
2018,07,27,02,01,16.60
2018,07,27,02,02,16.60
2018,07,27,02,03,16.60
2018,07,27,02,04,16.60
2018,07,27,02,05,16.60
2018,07,27,02,06,16.60
2018,07,27,02,07,16.60
2018,07,27,02,08,16.60
2018,07,27,02,09,16.60
2018,07,27,02,10,16.50
2018,07,27,02,11,16.50
2018,07,27,02,12,16.50
2018,07,27,02,13,16.50
2018,07,27,02,14,16.40
2018,07,27,02,15,16.40
2018,07,27,02,16,16.40
2018,07,27,02,17,16.40
2018,07,27,02,18,16.40
2018,07,27,02,19,16.40
2018,07,27,02,20,16.40
2018,07,27,02,21,16.40
2018,07,27,02,22,16.30
2018,07,27,02,23,16.30
2018,07,27,02,24,16.30
2018,07,27,02,25,16.30
2018,07,27,02,26,16.30
2018,07,27,02,27,16.30
2018,07,27,02,28,16.30
2018,07,27,02,29,16.30
2018,07,27,02,30,16.30
2018,07,27,02,31,16.20
2018,07,27,02,32,16.20
2018,07,27,02,33,16.20
2018,07,27,02,34,16.20
2018,07,27,02,35,16.20
2018,07,27,02,36,16.20
2018,07,27,02,37,16.20
2018,07,27,02,38,16.20
2018,07,27,02,39,16.10
2018,07,27,02,40,16.10
2018,07,27,02,41,16.10
2018,07,27,02,42,16.10
2018,07,27,02,43,16.10
2018,07,27,02,44,16.10
2018,07,27,02,45,16.10
2018,07,27,02,46,16.10
2018,07,27,02,47,16.10
2018,07,27,02,48,16.00
2018,07,27,02,49,16.00
2018,07,27,02,50,16.00
2018,07,27,02,51,16.00
2018,07,27,02,52,16.00
2018,07,27,02,53,15.90
2018,07,27,02,54,15.90
2018,07,27,02,55,15.90
2018,07,27,02,56,15.90
2018,07,27,02,57,15.90
2018,07,27,02,58,15.90
2018,07,27,02,59,15.90
2018,07,27,03,00,15.80
2018,07,27,03,01,15.80
2018,07,27,03,02,15.80
2018,07,27,03,03,15.80
2018,07,27,03,04,15.80
2018,07,27,03,05,15.80
2018,07,27,03,06,15.80
2018,07,27,03,07,15.80
2018,07,27,03,08,15.80
2018,07,27,03,09,15.80
2018,07,27,03,10,15.70
2018,07,27,03,11,15.70
2018,07,27,03,12,15.70
2018,07,27,03,13,15.70
2018,07,27,03,14,15.70
2018,07,27,03,15,15.70
2018,07,27,03,16,15.70
2018,07,27,03,17,15.70
2018,07,27,03,18,15.70
2018,07,27,03,19,15.70
2018,07,27,03,20,15.60
2018,07,27,03,21,15.60
2018,07,27,03,22,15.60
2018,07,27,03,23,15.60
2018,07,27,03,24,15.60
2018,07,27,03,25,15.60
2018,07,27,03,26,15.60
2018,07,27,03,27,15.60
2018,07,27,03,28,15.60
2018,07,27,03,29,15.60
2018,07,27,03,30,15.50
2018,07,27,03,31,15.50
2018,07,27,03,32,15.50
2018,07,27,03,33,15.50
2018,07,27,03,34,15.50
2018,07,27,03,35,15.40
2018,07,27,03,36,15.40
2018,07,27,03,37,15.40
2018,07,27,03,38,15.40
2018,07,27,03,39,15.40
2018,07,27,03,40,15.40
2018,07,27,03,41,15.30
2018,07,27,03,42,15.30
2018,07,27,03,43,15.30
2018,07,27,03,44,15.30
2018,07,27,03,45,15.30
2018,07,27,03,46,15.30
2018,07,27,03,47,15.30
2018,07,27,03,48,15.30
2018,07,27,03,49,15.20
2018,07,27,03,50,15.20
2018,07,27,03,51,15.20
2018,07,27,03,52,15.20
2018,07,27,03,53,15.20
2018,07,27,03,54,15.20
2018,07,27,03,55,15.10
2018,07,27,03,56,15.10
2018,07,27,03,57,15.10
2018,07,27,03,58,15.10
2018,07,27,03,59,15.10
2018,07,27,04,00,15.10
2018,07,27,04,01,15.10
2018,07,27,04,02,15.10
2018,07,27,04,03,15.00
2018,07,27,04,04,15.00
2018,07,27,04,05,15.00
2018,07,27,04,06,15.00
2018,07,27,04,07,15.00
2018,07,27,04,08,15.00
2018,07,27,04,09,15.00
2018,07,27,04,10,15.00
2018,07,27,04,11,15.00
2018,07,27,04,12,15.00
2018,07,27,04,13,14.90
2018,07,27,04,14,14.90
2018,07,27,04,15,14.90
2018,07,27,04,16,14.90
2018,07,27,04,17,14.90
2018,07,27,04,18,14.90
2018,07,27,04,19,14.90
2018,07,27,04,20,14.80
2018,07,27,04,21,14.80
2018,07,27,04,22,14.80
2018,07,27,04,23,14.80
2018,07,27,04,24,14.80
2018,07,27,04,25,14.80
2018,07,27,04,26,14.80
2018,07,27,04,27,14.80
2018,07,27,04,28,14.80
2018,07,27,04,29,14.80
2018,07,27,04,30,14.80
2018,07,27,04,31,14.80
2018,07,27,04,32,14.80
2018,07,27,04,33,14.80
2018,07,27,04,34,14.70
2018,07,27,04,35,14.70
2018,07,27,04,36,14.70
2018,07,27,04,37,14.70
2018,07,27,04,38,14.70
2018,07,27,04,39,14.70
2018,07,27,04,40,14.70
2018,07,27,04,41,14.70
2018,07,27,04,42,14.70
2018,07,27,04,43,14.70
2018,07,27,04,44,14.70
2018,07,27,04,45,14.60
2018,07,27,04,46,14.60
2018,07,27,04,47,14.60
2018,07,27,04,48,14.60
2018,07,27,04,49,14.60
2018,07,27,04,50,14.60
2018,07,27,04,51,14.60
2018,07,27,04,52,14.60
2018,07,27,04,53,14.60
2018,07,27,04,54,14.60
2018,07,27,04,55,14.60
2018,07,27,04,56,14.60
2018,07,27,04,57,14.60
2018,07,27,04,58,14.60
2018,07,27,04,59,14.50
2018,07,27,05,00,14.50
2018,07,27,05,01,14.50
2018,07,27,05,02,14.50
2018,07,27,05,03,14.50
2018,07,27,05,04,14.50
2018,07,27,05,05,14.40
2018,07,27,05,06,14.40
2018,07,27,05,07,14.40
2018,07,27,05,08,14.40
2018,07,27,05,09,14.40
2018,07,27,05,10,14.40
2018,07,27,05,11,14.40
2018,07,27,05,12,14.40
2018,07,27,05,13,14.40
2018,07,27,05,14,14.40
2018,07,27,05,15,14.40
2018,07,27,05,16,14.40
2018,07,27,05,17,14.30
2018,07,27,05,18,14.30
2018,07,27,05,19,14.30
2018,07,27,05,20,14.30
2018,07,27,05,21,14.30
2018,07,27,05,22,14.30
2018,07,27,05,23,14.30
2018,07,27,05,24,14.30
2018,07,27,05,25,14.30
2018,07,27,05,26,14.20
2018,07,27,05,27,14.20
2018,07,27,05,28,14.20
2018,07,27,05,29,14.20
2018,07,27,05,30,14.20
2018,07,27,05,31,14.20
2018,07,27,05,32,14.20
2018,07,27,05,33,14.20
2018,07,27,05,34,14.20
2018,07,27,05,35,14.20
2018,07,27,05,36,14.20
2018,07,27,05,37,14.10
2018,07,27,05,38,14.10
2018,07,27,05,39,14.10
2018,07,27,05,40,14.10
2018,07,27,05,41,14.10
2018,07,27,05,42,14.10
2018,07,27,05,43,14.10
2018,07,27,05,44,14.10
2018,07,27,05,45,14.10
2018,07,27,05,46,14.10
2018,07,27,05,47,14.10
2018,07,27,05,48,14.10
2018,07,27,05,49,14.10
2018,07,27,05,50,14.10
2018,07,27,05,51,14.10
2018,07,27,05,52,14.00
2018,07,27,05,53,14.00
2018,07,27,05,54,14.00
2018,07,27,05,55,14.00
2018,07,27,05,56,14.00
2018,07,27,05,57,14.00
2018,07,27,05,58,14.00
2018,07,27,05,59,14.00
2018,07,27,06,00,14.00
2018,07,27,06,01,14.00
2018,07,27,06,02,14.00
2018,07,27,06,03,14.00
2018,07,27,06,04,14.00
2018,07,27,06,05,14.00
2018,07,27,06,06,14.00
2018,07,27,06,07,14.00
2018,07,27,06,08,14.00
2018,07,27,06,09,14.00
2018,07,27,06,10,14.00
2018,07,27,06,11,14.00
2018,07,27,06,12,14.00
2018,07,27,06,13,14.00
2018,07,27,06,14,14.00
2018,07,27,06,15,14.00
2018,07,27,06,16,14.00
2018,07,27,06,17,14.00
2018,07,27,06,18,14.00
2018,07,27,06,19,14.00
2018,07,27,06,20,14.00
2018,07,27,06,21,14.00
2018,07,27,06,22,14.00
2018,07,27,06,23,13.90
2018,07,27,06,24,13.90
2018,07,27,06,25,13.90
2018,07,27,06,26,13.90
2018,07,27,06,27,13.90
2018,07,27,06,28,13.90
2018,07,27,06,29,13.90
2018,07,27,06,30,13.90
2018,07,27,06,31,13.90
2018,07,27,06,32,13.90
2018,07,27,06,33,13.90
2018,07,27,06,34,13.90
2018,07,27,06,35,13.90
2018,07,27,06,36,13.90
2018,07,27,06,37,13.90
2018,07,27,06,38,13.90
2018,07,27,06,39,13.90
2018,07,27,06,40,13.90
2018,07,27,06,41,14.00
2018,07,27,06,42,14.00
2018,07,27,06,43,14.00
2018,07,27,06,44,14.00
2018,07,27,06,45,14.00
2018,07,27,06,46,14.00
2018,07,27,06,47,14.00
2018,07,27,06,48,14.10
2018,07,27,06,49,14.10
2018,07,27,06,50,14.10
2018,07,27,06,51,14.10
2018,07,27,06,52,14.10
2018,07,27,06,53,14.10
2018,07,27,06,54,14.20
2018,07,27,06,55,14.20
2018,07,27,06,56,14.20
2018,07,27,06,57,14.20
2018,07,27,06,58,14.20
2018,07,27,06,59,14.20
2018,07,27,07,00,14.20
2018,07,27,07,01,14.20
2018,07,27,07,02,14.20
2018,07,27,07,03,14.20
2018,07,27,07,04,14.20
2018,07,27,07,05,14.20
2018,07,27,07,06,14.20
2018,07,27,07,07,14.30
2018,07,27,07,08,14.30
2018,07,27,07,09,14.30
2018,07,27,07,10,14.30
2018,07,27,07,11,14.30
2018,07,27,07,12,14.30
2018,07,27,07,13,14.40
2018,07,27,07,14,14.40
2018,07,27,07,15,14.40
2018,07,27,07,16,14.40
2018,07,27,07,17,14.40
2018,07,27,07,18,14.50
2018,07,27,07,19,14.50
2018,07,27,07,20,14.50
2018,07,27,07,21,14.60
2018,07,27,07,22,14.60
2018,07,27,07,23,14.60
2018,07,27,07,24,14.60
2018,07,27,07,25,14.70
2018,07,27,07,26,14.70
2018,07,27,07,27,14.70
2018,07,27,07,28,14.80
2018,07,27,07,29,14.80
2018,07,27,07,30,14.90
2018,07,27,07,31,14.90
2018,07,27,07,32,15.00
2018,07,27,07,33,15.10
2018,07,27,07,34,15.20
2018,07,27,07,35,15.30
2018,07,27,07,36,15.30
2018,07,27,07,37,15.40
2018,07,27,07,38,15.40
2018,07,27,07,39,15.50
2018,07,27,07,40,15.60
2018,07,27,07,41,15.60
2018,07,27,07,42,15.70
2018,07,27,07,43,15.80
2018,07,27,07,44,15.80
2018,07,27,07,45,15.90
2018,07,27,07,46,15.90
2018,07,27,07,47,16.00
2018,07,27,07,48,16.10
2018,07,27,07,49,16.20
2018,07,27,07,50,16.20
2018,07,27,07,51,16.30
2018,07,27,07,52,16.40
2018,07,27,07,53,16.40
2018,07,27,07,54,16.50
2018,07,27,07,55,16.50
2018,07,27,07,56,16.50
2018,07,27,07,57,16.60
2018,07,27,07,58,16.70
2018,07,27,07,59,16.80
2018,07,27,08,00,16.80
2018,07,27,08,01,16.90
2018,07,27,08,02,17.00
2018,07,27,08,03,17.00
2018,07,27,08,04,17.10
2018,07,27,08,05,17.20
2018,07,27,08,06,17.30
2018,07,27,08,07,17.30
2018,07,27,08,08,17.40
2018,07,27,08,09,17.50
2018,07,27,08,10,17.50
2018,07,27,08,11,17.60
2018,07,27,08,12,17.60
2018,07,27,08,13,17.70
2018,07,27,08,14,17.80
2018,07,27,08,15,17.80
2018,07,27,08,16,17.90
2018,07,27,08,17,17.90
2018,07,27,08,18,18.00
2018,07,27,08,19,18.10
2018,07,27,08,20,18.10
2018,07,27,08,21,18.20
2018,07,27,08,22,18.30
2018,07,27,08,23,18.30
2018,07,27,08,24,18.30
2018,07,27,08,25,18.40
2018,07,27,08,26,18.40
2018,07,27,08,27,18.40
2018,07,27,08,28,18.40
2018,07,27,08,29,18.50
2018,07,27,08,30,18.50
2018,07,27,08,31,18.60
2018,07,27,08,32,18.60
2018,07,27,08,33,18.70
2018,07,27,08,34,18.70
2018,07,27,08,35,18.70
2018,07,27,08,36,18.70
2018,07,27,08,37,18.80
2018,07,27,08,38,18.80
2018,07,27,08,39,18.80
2018,07,27,08,40,18.90
2018,07,27,08,41,18.90
2018,07,27,08,42,18.90
2018,07,27,08,43,19.00
2018,07,27,08,44,19.00
2018,07,27,08,45,19.00
2018,07,27,08,46,19.00
2018,07,27,08,47,19.10
2018,07,27,08,48,19.10
2018,07,27,08,49,19.10
2018,07,27,08,50,19.20
2018,07,27,08,51,19.30
2018,07,27,08,52,19.30
2018,07,27,08,53,19.40
2018,07,27,08,54,19.40
2018,07,27,08,55,19.40
2018,07,27,08,56,19.50
2018,07,27,08,57,19.50
2018,07,27,08,58,19.50
2018,07,27,08,59,19.60
2018,07,27,09,00,19.60
2018,07,27,09,01,19.70
2018,07,27,09,02,19.70
2018,07,27,09,03,19.80
2018,07,27,09,04,19.80
2018,07,27,09,05,19.80
2018,07,27,09,06,19.80
2018,07,27,09,07,19.80
2018,07,27,09,08,19.90
2018,07,27,09,09,20.00
2018,07,27,09,10,20.00
2018,07,27,09,11,20.10
2018,07,27,09,12,20.20
2018,07,27,09,13,20.30
2018,07,27,09,14,20.30
2018,07,27,09,15,20.30
2018,07,27,09,16,20.30
2018,07,27,09,17,20.30
2018,07,27,09,18,20.30
2018,07,27,09,19,20.30
2018,07,27,09,20,20.40
2018,07,27,09,21,20.40
2018,07,27,09,22,20.40
2018,07,27,09,23,20.40
2018,07,27,09,24,20.50
2018,07,27,09,25,20.50
2018,07,27,09,26,20.50
2018,07,27,09,27,20.60
2018,07,27,09,28,20.60
2018,07,27,09,29,20.70
2018,07,27,09,30,20.70
2018,07,27,09,31,20.70
2018,07,27,09,32,20.70
2018,07,27,09,33,20.70
2018,07,27,09,34,20.70
2018,07,27,09,35,20.70
2018,07,27,09,36,20.80
2018,07,27,09,37,20.80
2018,07,27,09,38,20.80
2018,07,27,09,39,20.80
2018,07,27,09,40,20.90
2018,07,27,09,41,20.90
2018,07,27,09,42,20.90
2018,07,27,09,43,20.90
2018,07,27,09,44,21.00
2018,07,27,09,45,21.00
2018,07,27,09,46,21.10
2018,07,27,09,47,21.10
2018,07,27,09,48,21.20
2018,07,27,09,49,21.20
2018,07,27,09,50,21.30
2018,07,27,09,51,21.30
2018,07,27,09,52,21.40
2018,07,27,09,53,21.40
2018,07,27,09,54,21.40
2018,07,27,09,55,21.50
2018,07,27,09,56,21.50
2018,07,27,09,57,21.60
2018,07,27,09,58,21.60
2018,07,27,09,59,21.60
2018,07,27,10,00,21.70
2018,07,27,10,01,21.70
2018,07,27,10,02,21.80
2018,07,27,10,03,21.80
2018,07,27,10,04,21.90
2018,07,27,10,05,22.00
2018,07,27,10,06,22.00
2018,07,27,10,07,22.10
2018,07,27,10,08,22.20
2018,07,27,10,09,22.30
2018,07,27,10,10,22.30
2018,07,27,10,11,22.40
2018,07,27,10,12,22.40
2018,07,27,10,13,22.50
2018,07,27,10,14,22.50
2018,07,27,10,15,22.60
2018,07,27,10,16,22.60
2018,07,27,10,17,22.60
2018,07,27,10,18,22.70
2018,07,27,10,19,22.80
2018,07,27,10,20,22.90
2018,07,27,10,21,22.90
2018,07,27,10,22,23.00
2018,07,27,10,23,23.10
2018,07,27,10,24,23.20
2018,07,27,10,25,23.30
2018,07,27,10,26,23.40
2018,07,27,10,27,23.50
2018,07,27,10,28,23.50
2018,07,27,10,29,23.60
2018,07,27,10,30,23.60
2018,07,27,10,31,23.70
2018,07,27,10,32,23.70
2018,07,27,10,33,23.70
2018,07,27,10,34,23.70
2018,07,27,10,35,23.70
2018,07,27,10,36,23.80
2018,07,27,10,37,23.80
2018,07,27,10,38,23.80
2018,07,27,10,39,23.90
2018,07,27,10,40,23.90
2018,07,27,10,41,24.00
2018,07,27,10,42,24.00
2018,07,27,10,43,24.10
2018,07,27,10,44,24.10
2018,07,27,10,45,24.10
2018,07,27,10,46,24.20
2018,07,27,10,47,24.20
2018,07,27,10,48,24.30
2018,07,27,10,49,24.30
2018,07,27,10,50,24.30
2018,07,27,10,51,24.40
2018,07,27,10,52,24.40
2018,07,27,10,53,24.40
2018,07,27,10,54,24.50
2018,07,27,10,55,24.60
2018,07,27,10,56,24.60
2018,07,27,10,57,24.70
2018,07,27,10,58,24.70
2018,07,27,10,59,24.80
2018,07,27,11,00,24.80
2018,07,27,11,01,24.80
2018,07,27,11,02,24.80
2018,07,27,11,03,24.90
2018,07,27,11,04,25.00
2018,07,27,11,05,25.00
2018,07,27,11,06,25.10
2018,07,27,11,07,25.20
2018,07,27,11,08,25.30
2018,07,27,11,09,25.40
2018,07,27,11,10,25.40
2018,07,27,11,11,25.50
2018,07,27,11,12,25.60
2018,07,27,11,13,25.60
2018,07,27,11,14,25.60
2018,07,27,11,15,25.70
2018,07,27,11,16,25.70
2018,07,27,11,17,25.80
2018,07,27,11,18,25.90
2018,07,27,11,19,26.00
2018,07,27,11,20,26.10
2018,07,27,11,21,26.20
2018,07,27,11,22,26.30
2018,07,27,11,23,26.30
2018,07,27,11,24,26.40
2018,07,27,11,25,26.50
2018,07,27,11,26,26.50
2018,07,27,11,27,26.60
2018,07,27,11,28,26.70
2018,07,27,11,29,26.70
2018,07,27,11,30,26.80
2018,07,27,11,31,26.80
2018,07,27,11,32,26.80
2018,07,27,11,33,26.80
2018,07,27,11,34,26.80
2018,07,27,11,35,26.80
2018,07,27,11,36,26.80
2018,07,27,11,37,26.80
2018,07,27,11,38,26.80
2018,07,27,11,39,26.80
2018,07,27,11,40,26.90
2018,07,27,11,41,26.90
2018,07,27,11,42,26.90
2018,07,27,11,43,26.90
2018,07,27,11,44,27.00
2018,07,27,11,45,27.00
2018,07,27,11,46,27.00
2018,07,27,11,47,27.10
2018,07,27,11,48,27.10
2018,07,27,11,49,27.10
2018,07,27,11,50,27.20
2018,07,27,11,51,27.20
2018,07,27,11,52,27.30
2018,07,27,11,53,27.40
2018,07,27,11,54,27.40
2018,07,27,11,55,27.50
2018,07,27,11,56,27.60
2018,07,27,11,57,27.70
2018,07,27,11,58,27.80
2018,07,27,11,59,27.80
2018,07,27,12,00,27.80
2018,07,27,12,01,27.80
2018,07,27,12,02,27.80
2018,07,27,12,03,27.80
2018,07,27,12,04,27.80
2018,07,27,12,05,27.90
2018,07,27,12,06,27.90
2018,07,27,12,07,28.00
2018,07,27,12,08,28.00
2018,07,27,12,09,28.10
2018,07,27,12,10,28.20
2018,07,27,12,11,28.30
2018,07,27,12,12,28.40
2018,07,27,12,13,28.50
2018,07,27,12,14,28.60
2018,07,27,12,15,28.60
2018,07,27,12,16,28.70
2018,07,27,12,17,28.70
2018,07,27,12,18,28.80
2018,07,27,12,19,28.80
2018,07,27,12,20,28.90
2018,07,27,12,21,29.00
2018,07,27,12,22,29.10
2018,07,27,12,23,29.20
2018,07,27,12,24,29.30
2018,07,27,12,25,29.40
2018,07,27,12,26,29.50
2018,07,27,12,27,29.70
2018,07,27,12,28,29.80
2018,07,27,12,29,29.90
2018,07,27,12,30,30.00
2018,07,27,12,31,30.10
2018,07,27,12,32,30.20
2018,07,27,12,33,30.30
2018,07,27,12,34,30.40
2018,07,27,12,35,30.50
2018,07,27,12,36,30.60
2018,07,27,12,37,30.60
2018,07,27,12,38,30.70
2018,07,27,12,39,30.60
2018,07,27,12,40,30.60
2018,07,27,12,41,30.60
2018,07,27,12,42,30.60
2018,07,27,12,43,30.60
2018,07,27,12,44,30.60
2018,07,27,12,45,30.60
2018,07,27,12,46,30.60
2018,07,27,12,47,30.60
2018,07,27,12,48,30.60
2018,07,27,12,49,30.60
2018,07,27,12,50,30.60
2018,07,27,12,51,30.60
2018,07,27,12,52,30.60
2018,07,27,12,53,30.60
2018,07,27,12,54,30.60
2018,07,27,12,55,30.60
2018,07,27,12,56,30.70
2018,07,27,12,57,30.80
2018,07,27,12,58,30.90
2018,07,27,12,59,30.90
2018,07,27,13,00,31.00
2018,07,27,13,01,31.00
2018,07,27,13,02,31.10
2018,07,27,13,03,31.20
2018,07,27,13,04,31.30
2018,07,27,13,05,31.20
2018,07,27,13,06,31.10
2018,07,27,13,07,31.00
2018,07,27,13,08,30.80
2018,07,27,13,09,30.70
2018,07,27,13,10,30.60
2018,07,27,13,11,30.50
2018,07,27,13,12,30.40
2018,07,27,13,13,30.30
2018,07,27,13,14,30.20
2018,07,27,13,15,30.20
2018,07,27,13,16,30.30
2018,07,27,13,17,30.30
2018,07,27,13,18,30.20
2018,07,27,13,19,30.10
2018,07,27,13,20,30.10
2018,07,27,13,21,30.20
2018,07,27,13,22,30.20
2018,07,27,13,23,30.20
2018,07,27,13,24,30.20
2018,07,27,13,25,30.10
2018,07,27,13,26,30.10
2018,07,27,13,27,30.10
2018,07,27,13,28,30.10
2018,07,27,13,29,30.10
2018,07,27,13,30,30.10
2018,07,27,13,31,30.10
2018,07,27,13,32,30.00
2018,07,27,13,33,30.00
2018,07,27,13,34,30.00
2018,07,27,13,35,29.90
2018,07,27,13,36,29.90
2018,07,27,13,37,29.90
2018,07,27,13,38,30.00
2018,07,27,13,39,30.00
2018,07,27,13,40,30.10
2018,07,27,13,41,30.10
2018,07,27,13,42,30.20
2018,07,27,13,43,30.20
2018,07,27,13,44,30.20
2018,07,27,13,45,30.20
2018,07,27,13,46,30.20
2018,07,27,13,47,30.30
2018,07,27,13,48,30.40
2018,07,27,13,49,30.40
2018,07,27,13,50,30.50
2018,07,27,13,51,30.50
2018,07,27,13,52,30.40
2018,07,27,13,53,30.40
2018,07,27,13,54,30.30
2018,07,27,13,55,30.20
2018,07,27,13,56,30.20
2018,07,27,13,57,30.20
2018,07,27,13,58,30.20
2018,07,27,13,59,30.30
2018,07,27,14,00,30.30
2018,07,27,14,01,30.40
2018,07,27,14,02,30.40
2018,07,27,14,03,30.40
2018,07,27,14,04,30.40
2018,07,27,14,05,30.50
2018,07,27,14,06,30.50
2018,07,27,14,07,30.60
2018,07,27,14,08,30.60
2018,07,27,14,09,30.50
2018,07,27,14,10,30.40
2018,07,27,14,11,30.50
2018,07,27,14,12,30.50
2018,07,27,14,13,30.50
2018,07,27,14,14,30.40
2018,07,27,14,15,30.40
2018,07,27,14,16,30.40
2018,07,27,14,17,30.40
2018,07,27,14,18,30.40
2018,07,27,14,19,30.40
2018,07,27,14,20,30.40
2018,07,27,14,21,30.40
2018,07,27,14,22,30.30
2018,07,27,14,23,30.30
2018,07,27,14,24,30.40
2018,07,27,14,25,30.30
2018,07,27,14,26,30.30
2018,07,27,14,27,30.20
2018,07,27,14,28,30.20
2018,07,27,14,29,30.10
2018,07,27,14,30,30.20
2018,07,27,14,31,30.10
2018,07,27,14,32,30.10
2018,07,27,14,33,30.10
2018,07,27,14,34,30.20
2018,07,27,14,35,30.20
2018,07,27,14,36,30.20
2018,07,27,14,37,30.20
2018,07,27,14,38,30.10
2018,07,27,14,39,30.10
2018,07,27,14,40,30.20
2018,07,27,14,41,30.30
2018,07,27,14,42,30.30
2018,07,27,14,43,30.30
2018,07,27,14,44,30.30
2018,07,27,14,45,30.30
2018,07,27,14,46,30.30
2018,07,27,14,47,30.40
2018,07,27,14,48,30.50
2018,07,27,14,49,30.50
2018,07,27,14,50,30.40
2018,07,27,14,51,30.40
2018,07,27,14,52,30.40
2018,07,27,14,53,30.50
2018,07,27,14,54,30.50
2018,07,27,14,55,30.50
2018,07,27,14,56,30.50
2018,07,27,14,57,30.50
2018,07,27,14,58,30.50
2018,07,27,14,59,30.50
2018,07,27,15,00,30.40
2018,07,27,15,01,30.40
2018,07,27,15,02,30.50
2018,07,27,15,03,30.50
2018,07,27,15,04,30.60
2018,07,27,15,05,30.60
2018,07,27,15,06,30.60
2018,07,27,15,07,30.60
2018,07,27,15,08,30.70
2018,07,27,15,09,30.70
2018,07,27,15,10,30.70
2018,07,27,15,11,30.80
2018,07,27,15,12,30.80
2018,07,27,15,13,30.80
2018,07,27,15,14,30.80
2018,07,27,15,15,30.70
2018,07,27,15,16,30.60
2018,07,27,15,17,30.50
2018,07,27,15,18,30.50
2018,07,27,15,19,30.50
2018,07,27,15,20,30.50
2018,07,27,15,21,30.50
2018,07,27,15,22,30.50
2018,07,27,15,23,30.50
2018,07,27,15,24,30.50
2018,07,27,15,25,30.50
2018,07,27,15,26,30.60
2018,07,27,15,27,30.60
2018,07,27,15,28,30.60
2018,07,27,15,29,30.60
2018,07,27,15,30,30.60
2018,07,27,15,31,30.50
2018,07,27,15,32,30.60
2018,07,27,15,33,30.60
2018,07,27,15,34,30.50
2018,07,27,15,35,30.50
2018,07,27,15,36,30.40
2018,07,27,15,37,30.50
2018,07,27,15,38,30.50
2018,07,27,15,39,30.60
2018,07,27,15,40,30.60
2018,07,27,15,41,30.70
2018,07,27,15,42,30.70
2018,07,27,15,43,30.70
2018,07,27,15,44,30.70
2018,07,27,15,45,30.70
2018,07,27,15,46,30.80
2018,07,27,15,47,30.90
2018,07,27,15,48,31.00
2018,07,27,15,49,31.00
2018,07,27,15,50,31.00
2018,07,27,15,51,31.00
2018,07,27,15,52,30.90
2018,07,27,15,53,30.80
2018,07,27,15,54,30.80
2018,07,27,15,55,30.80
2018,07,27,15,56,30.80
2018,07,27,15,57,30.80
2018,07,27,15,58,30.80
2018,07,27,15,59,30.80
2018,07,27,16,00,30.80
2018,07,27,16,01,30.80
2018,07,27,16,02,30.90
2018,07,27,16,03,31.00
2018,07,27,16,04,31.00
2018,07,27,16,05,30.90
2018,07,27,16,06,30.80
2018,07,27,16,07,30.80
2018,07,27,16,08,30.70
2018,07,27,16,09,30.70
2018,07,27,16,10,30.70
2018,07,27,16,11,30.60
2018,07,27,16,12,30.60
2018,07,27,16,13,30.70
2018,07,27,16,14,30.70
2018,07,27,16,15,30.80
2018,07,27,16,16,30.80
2018,07,27,16,17,30.90
2018,07,27,16,18,31.00
2018,07,27,16,19,31.00
2018,07,27,16,20,31.00
2018,07,27,16,21,31.10
2018,07,27,16,22,31.10
2018,07,27,16,23,31.10
2018,07,27,16,24,31.10
2018,07,27,16,25,31.10
2018,07,27,16,26,31.10
2018,07,27,16,27,31.10
2018,07,27,16,28,31.00
2018,07,27,16,29,31.00
2018,07,27,16,30,31.10
2018,07,27,16,31,31.10
2018,07,27,16,32,31.20
2018,07,27,16,33,31.20
2018,07,27,16,34,31.20
2018,07,27,16,35,31.30
2018,07,27,16,36,31.30
2018,07,27,16,37,31.30
2018,07,27,16,38,31.30
2018,07,27,16,39,31.20
2018,07,27,16,40,31.20
2018,07,27,16,41,31.20
2018,07,27,16,42,31.10
2018,07,27,16,43,31.10
2018,07,27,16,44,31.10
2018,07,27,16,45,31.10
2018,07,27,16,46,31.20
2018,07,27,16,47,31.20
2018,07,27,16,48,31.20
2018,07,27,16,49,31.30
2018,07,27,16,50,31.10
2018,07,27,16,51,31.10
2018,07,27,16,52,31.00
2018,07,27,16,53,30.90
2018,07,27,16,54,30.80
2018,07,27,16,55,30.70
2018,07,27,16,56,30.70
2018,07,27,16,57,30.60
2018,07,27,16,58,30.60
2018,07,27,16,59,30.60
2018,07,27,17,00,30.60
2018,07,27,17,01,30.50
2018,07,27,17,02,30.50
2018,07,27,17,03,30.50
2018,07,27,17,04,30.40
2018,07,27,17,05,30.40
2018,07,27,17,06,30.40
2018,07,27,17,07,30.40
2018,07,27,17,08,30.30
2018,07,27,17,09,30.20
2018,07,27,17,10,30.10
2018,07,27,17,11,30.10
2018,07,27,17,12,30.10
2018,07,27,17,13,30.10
2018,07,27,17,14,30.10
2018,07,27,17,15,30.10
2018,07,27,17,16,30.10
2018,07,27,17,17,30.10
2018,07,27,17,18,30.00
2018,07,27,17,19,29.90